Weather in Bergamo

Italy     45°41′46″N   9°40′05″E
temp.,
°C
wind,
m/s
gust,
m/s
humid.,
%
clouds,
%
prec.,
mm/h
press.,
hPa
HPBL,
m
5 march, fri
fri501:00+5n227187 0.0 101925
04:00+4nne236931 0.0 101839
07:00+4nne236916 0.0 101731
10:00+9s11550 0.0 1017384
13:00+11ssw22530 0.0 1016775
16:00+12sw22500 0.0 1016964
19:00+7nne12650 0.0 101823
22:00+6nne33670 0.1 102160
6 march, sat
sat601:00+5nne236213 0.3 102338
04:00+5ne226881 0.3 102464
07:00+4sse129391 2.7 1027243
10:00+3sse2394100 2.4 1028338
13:00+5sse1275100 2.8 1028568
16:00+6sse116698 0.1 1028819
19:00+4ssw017294 0.1 102970
22:00+2nnw117965 0.0 103035
7 march, sun
sun701:00+1nne128444 0.0 103025
04:00+1nne12830 0.0 102824
07:00+1nne12810 0.0 102824
10:00+6ssw116633 0.0 1025450
13:00+8ssw215854 0.0 1024760
16:00+8ssw115768 0.0 1021818
19:00+4nne117484 0.0 102140
22:00+3nne12816 0.0 102123
8 march, mon
mon801:00+2nne22803 0.0 102025
04:00+2nne12790 0.0 101923
07:00+1nne12790 0.0 101922
10:00+6s11640 0.0 1018458
13:00+9s21580 0.0 1017861
16:00+9s215911 0.0 1015883
19:00+5ne017925 0.0 101727
22:00+4nne118338 0.0 101922
9 march, tue
tue901:00+4nne118449 0.0 101922
04:00+4nne1187100 0.0 101922
07:00+4nnw0186100 0.1 102049
10:00+5sse117699 0.1 1020499
13:00+9ssw116194 0.2 1019971
16:00+8ssw116099 0.0 10181037
19:00+5nne117566 0.0 102138
22:00+4nne227837 0.0 102429